Weather History for KDKK - March, 2013

Change the Weather History Date:

Tuesday, March 26, 2013

  Actual Average Record
Temperature  
Mean Temperature 36 °F -  
Max Temperature 41 °F 48 °F 80 °F (1945)
Min Temperature 30 °F 29 °F 8 °F (1960)
Degree Days  
Heating Degree Days 30    
Moisture  
Dew Point 28 °F    
Average Humidity 76    
Maximum Humidity 85    
Minimum Humidity 67    
Precipitation  
Precipitation 0.00 in - - ()
Sea Level Pressure  
Sea Level Pressure 29.90 in    
Wind  
Wind Speed 8 mph (SW)    
Max Wind Speed 17 mph    
Max Gust Speed 28 mph    
Visibility 10 miles    
Events      
Averages and records for this station are not official NWS values.
T = Trace of Precipitation, MM = Missing Value Source: NWS Daily Summary

Daily Weather History Graph

Daily Weather History Graph

Search for Another Location

Airport or City:

Trip Planner

Search our weather history database for the weather conditions in past years. The results will help you decide how hot, cold, wet, or windy it might be!

Date:

Astronomy

Mar. 26, 2013 Rise Set
Actual Time 7:09 AM EDT 7:36 PM EDT
Civil Twilight 6:41 AM EDT 8:04 PM EDT
Nautical Twilight 6:08 AM EDT 8:38 PM EDT
Astronomical Twilight 5:33 AM EDT 9:12 PM EDT
Moon 7:11 PM EDT (3/26) 6:25 AM EDT (3/26)
Length of Visible Light 13h 23m
Length of Day
12h 27m
Waxing Gibbous, 99% of the Moon is Illuminated
Mar 26
Waxing Gibbous
Mar 27
Full
Apr 3
Last Quarter
Apr 10
New
Apr 18
First Quarter

Hourly Weather History & Observations

Time (EDT) Temp. Windchill Dew Point Humidity Pressure Visibility Wind Dir Wind Speed Gust Speed Precip Events Conditions
12:53 AM 30.9 °F 27.5 °F 27.0 °F 85% 29.79 in 10.0 mi SW 3.5 mph - N/A   Overcast
1:53 AM 32.0 °F 28.7 °F 27.0 °F 82% 29.80 in 10.0 mi SSW 3.5 mph - N/A   Overcast
2:53 AM 32.0 °F 27.5 °F 27.0 °F 82% 29.80 in 10.0 mi SW 4.6 mph - N/A   Mostly Cloudy
3:53 AM 30.0 °F 25.2 °F 26.1 °F 85% 29.81 in 10.0 mi SW 4.6 mph - N/A   Mostly Cloudy
4:53 AM 30.9 °F 24.3 °F 26.1 °F 82% 29.81 in 10.0 mi SW 6.9 mph - N/A   Mostly Cloudy
5:53 AM 32.0 °F 28.7 °F 26.1 °F 79% 29.83 in 10.0 mi SW 3.5 mph - N/A   Overcast
6:53 AM 33.1 °F 26.9 °F 26.1 °F 75% 29.84 in 10.0 mi SW 6.9 mph - N/A   Overcast
7:53 AM 33.1 °F 26.1 °F 27.0 °F 78% 29.86 in 10.0 mi WSW 8.1 mph - N/A   Overcast
8:53 AM 35.1 °F 27.4 °F 28.0 °F 76% 29.87 in 10.0 mi SW 10.4 mph - N/A   Overcast
9:53 AM 36.0 °F 28.0 °F 28.9 °F 76% 29.89 in 10.0 mi WSW 11.5 mph - N/A   Overcast
10:53 AM 37.0 °F 28.9 °F 30.0 °F 76% 29.91 in 10.0 mi WSW 12.7 mph - N/A   Overcast
11:53 AM 37.9 °F 31.5 °F 30.0 °F 73% 29.93 in 10.0 mi WSW 9.2 mph - N/A   Mostly Cloudy
12:53 PM 37.9 °F 29.2 °F 30.0 °F 73% 29.92 in 10.0 mi WSW 15.0 mph - N/A   Mostly Cloudy
1:53 PM 39.9 °F 32.1 °F 30.9 °F 70% 29.93 in 10.0 mi WSW 13.8 mph 20.7 mph N/A   Overcast
2:53 PM 39.9 °F 31.4 °F 30.9 °F 70% 29.93 in 10.0 mi SW 16.1 mph 20.7 mph N/A   Scattered Clouds
3:53 PM 41.0 °F 33.9 °F 30.9 °F 67% 29.92 in 10.0 mi WSW 12.7 mph 21.9 mph N/A   Mostly Cloudy
4:53 PM 39.9 °F 31.1 °F 30.0 °F 68% 29.93 in 10.0 mi WSW 17.3 mph 23.0 mph N/A   Overcast
5:53 PM 37.9 °F 28.9 °F 30.0 °F 73% 29.94 in 10.0 mi SW 16.1 mph 27.6 mph N/A   Overcast
6:53 PM 37.0 °F 29.3 °F 30.0 °F 76% 29.96 in 10.0 mi WSW 11.5 mph 24.2 mph N/A   Overcast
7:53 PM 36.0 °F 26.7 °F 28.9 °F 76% 29.97 in 10.0 mi SW 15.0 mph 21.9 mph N/A   Overcast
8:53 PM 36.0 °F 28.5 °F 28.9 °F 76% 29.99 in 10.0 mi WSW 10.4 mph - N/A   Overcast
9:53 PM 36.0 °F 28.5 °F 28.9 °F 76% 30.01 in 10.0 mi WSW 10.4 mph - N/A   Overcast
10:53 PM 36.0 °F 29.6 °F 28.0 °F 73% 30.01 in 10.0 mi SW 8.1 mph - N/A   Overcast
11:53 PM 35.1 °F 29.3 °F 27.0 °F 72% 30.02 in 10.0 mi WSW 6.9 mph - N/A   Overcast